[[{"header":{"parameterUnit":"m.s-1","parameterCategory":1,"la1":30.2991,"la2":30.254,"lo1":-89.0895,"lo2":-89.0444,"dy":0.0017,"dx":0.0017,"nx":28,"ny":28,"refTime":"2025-05-20T03:00:00:Z","depth":0,"parameterNumber":2,"parameterNumberName":"U-component_of_WINDS"},"data":[0,0,0,0,0,0,0,0,0,0,0,0,0,0,0,0,0,0,0,0,0,0,0,0,0,0,0,0,0,0,0,0,0,0,0,0,0,0,0,0,0,0,0,0,0,0,0,0,0,0,0,0,0,0,0,0,0,0,0.4823,0.4824,0,0.4884,0.4885,0.4885,0.4908,0.4908,0.4908,0.4908,0.4972,0.4974,0.4976,0,0,0,0,0,0,0,0,0,0,0,0,0,0.4727,0.4729,0.4823,0.4824,0.4824,0.4884,0.4885,0.4886,0.4908,0.4908,0.4908,0.4908,0.4971,0.4974,0.4976,0,0,0,0,0,0,0,0,0,0,0,0,0,0.4777,0.4729,0.4823,0.4843,0.4845,0.4884,0.4885,0.4886,0.4908,0.4908,0.4908,0.4908,0.4971,0.4973,0.4976,0.4999,0,0,0.4985,0.4986,0,0,0,0,0,0,0,0,0.4774,0.478,0.4839,0.4842,0.4844,0.4888,0.4875,0.4924,0.4909,0.4885,0.4908,0.4908,0.4944,0.4949,0.4962,0.5002,0.5005,0.4985,0.4987,0.4988,0.4989,0,0,0,0,0,0,0,0.477,0.4778,0.4847,0.484,0.4843,0.4849,0.4856,0.4884,0.4915,0.4887,0.4888,0.4895,0.4946,0.4959,0.4963,0.5006,0.4985,0.4988,0.4989,0.499,0.5069,0.507,0,0,0,0,0,0,0.4763,0.4774,0.4845,0.4849,0.4808,0.4851,0.4859,0.4874,0.4915,0.4921,0.4895,0.4896,0.4954,0.496,0.4966,0.4996,0.4988,0.4991,0.4992,0.5069,0.5069,0.507,0,0,0,0,0,0,0.4761,0.4769,0.4843,0.4812,0.4822,0.4853,0.4871,0.4876,0.4889,0.4922,0.4928,0.4903,0.4954,0.4962,0.4991,0.4998,0.4992,0.4995,0.5068,0.5069,0.507,0.5056,0,0,0,0,0,0,0.4758,0.4768,0.4777,0.4812,0.4824,0.4866,0.4871,0.4877,0.4893,0.4895,0.493,0.4936,0.4954,0.4986,0.4994,0.5002,0.4997,0.5068,0.5069,0.5069,0.5056,0.5056,0.5056,0,0,0,0,0,0.4755,0.4771,0.4778,0.4786,0.4835,0.4867,0.4873,0.4894,0.4894,0.4903,0.4925,0.4935,0.4996,0.4989,0.4998,0.5007,0.5068,0.5069,0.5069,0.5056,0.5056,0.5056,0,0,0,0,0,0,0.4737,0.4776,0.4784,0.4812,0.4836,0.4871,0.4883,0.4893,0.4918,0.4918,0.4943,0.4951,0.4978,0.4996,0.4987,0.5032,0.5033,0.5035,0.502,0.502,0.502,0.5016,0.4999,0,0,0,0,0,0.4736,0.4758,0.4792,0.4813,0.4825,0.4852,0.4866,0.488,0.4906,0.4916,0.494,0.4965,0.499,0.5006,0.503,0.5058,0.5067,0.5069,0.5069,0.5069,0.5071,0.5088,0.5089,0.5073,0.5073,0.5073,0,0,0.4735,0.4759,0.4772,0.481,0.483,0.4853,0.486,0.4884,0.4901,0.492,0.4949,0.4967,0.4997,0.5025,0.5039,0.504,0.5077,0.507,0.507,0.5072,0.5089,0.509,0.5091,0.5073,0.5073,0.5073,0,0,0.4745,0.4765,0.4786,0.4806,0.4836,0.4854,0.4858,0.4892,0.4904,0.4933,0.4948,0.4969,0.5011,0.5032,0.5048,0.5065,0.5076,0.5072,0.5073,0.5089,0.509,0.5092,0.5098,0.51,0.5074,0.5074,0.5074,0,0.474,0.4775,0.4795,0.4818,0.4835,0.4852,0.4874,0.4892,0.4929,0.494,0.4941,0.4994,0.5015,0.5049,0.5053,0.5065,0.5072,0.5069,0.5088,0.509,0.5091,0.5098,0.51,0.5074,0.5074,0.5074,0.5074,0,0.4767,0.4791,0.4804,0.4839,0.4857,0.4879,0.4903,0.4919,0.4931,0.4948,0.4978,0.5004,0.5034,0.5043,0.5055,0.5079,0.5079,0.5083,0.5085,0.5092,0.5099,0.5101,0.5073,0.5073,0.5073,0.5073,0,0,0.4768,0.4814,0.4818,0.4835,0.4869,0.4888,0.491,0.494,0.4953,0.4977,0.4997,0.5033,0.5037,0.5055,0.507,0.5083,0.5096,0.5087,0.5088,0.5088,0.5124,0.512,0.5123,0.5102,0.5103,0.5103,0.5121,0,0.4783,0.4825,0.4844,0.4877,0.4899,0.4916,0.4936,0.4959,0.4976,0.4997,0.5016,0.5041,0.5045,0.5056,0.507,0.5091,0.5103,0.509,0.5122,0.5123,0.5115,0.5126,0.5123,0.5139,0.5124,0.5124,0.5125,0,0.4807,0.4831,0.4866,0.4898,0.4908,0.4925,0.4953,0.4974,0.5,0.5012,0.5032,0.5045,0.507,0.5069,0.5104,0.5095,0.5109,0.5121,0.5122,0.5126,0.5125,0.5132,0.5144,0.5147,0.5129,0.5129,0.5128,0,0.4805,0.4846,0.4872,0.4886,0.4923,0.4935,0.4951,0.4978,0.4994,0.5019,0.503,0.5057,0.5072,0.5093,0.5114,0.5111,0.5147,0.5147,0.5157,0.5157,0.5165,0.5165,0.5181,0.5173,0.5173,0.5173,0.5172,0,0.482,0.4841,0.4872,0.4889,0.4913,0.4934,0.4957,0.4975,0.4998,0.5018,0.5034,0.5053,0.5079,0.5101,0.5117,0.5144,0.515,0.5161,0.5165,0.516,0.5159,0.517,0.517,0.5173,0.5173,0.5173,0.5173,0,0.4822,0.4844,0.4874,0.4907,0.4916,0.4932,0.496,0.4977,0.4994,0.502,0.5027,0.5054,0.5081,0.5103,0.5139,0.515,0.5177,0.5182,0.5168,0.5171,0.518,0.5179,0.5205,0.521,0.5197,0.5197,0.5197,0,0.4831,0.4847,0.4882,0.4897,0.4912,0.4936,0.4952,0.4974,0.4991,0.5022,0.5035,0.5063,0.5086,0.5128,0.5152,0.5178,0.5184,0.5192,0.5189,0.5183,0.5185,0.5185,0.5187,0.5192,0.5192,0.5192,0.5192,0,0.4844,0.4854,0.4877,0.4905,0.4924,0.4946,0.4969,0.498,0.5006,0.5024,0.5052,0.507,0.5105,0.5133,0.5162,0.5179,0.519,0.5193,0.5197,0.5192,0.5184,0.5189,0.517,0.5192,0.5192,0.5192,0.5192,0.5192,0.4851,0.4866,0.4893,0.4919,0.4938,0.4959,0.4976,0.4996,0.5019,0.5049,0.506,0.5089,0.5115,0.5155,0.5172,0.5195,0.5196,0.5202,0.5203,0.5204,0.5204,0.5179,0.52,0.52,0.52,0.52,0.52,0,0.4866,0.4883,0.4907,0.4938,0.4958,0.4966,0.4992,0.5008,0.5032,0.5056,0.5078,0.511,0.5136,0.5161,0.5189,0.5202,0.5208,0.5209,0.5209,0.5212,0.5201,0.5195,0.5204,0.5204,0.5204,0.5204,0.5204,0.5204,0.4876,0.4903,0.4916,0.4952,0.497,0.4998,0.5012,0.5031,0.505,0.5084,0.5106,0.5122,0.5146,0.5176,0.5201,0.5207,0.5217,0.5217,0.5225,0.5214,0.5213,0.5213,0.5207,0.5219,0.5219,0.5235,0.5235,0.5235]},{"header":{"parameterUnit":"m.s-1","parameterCategory":1,"la1":30.2991,"la2":30.254,"lo1":-89.0895,"lo2":-89.0444,"dy":0.0017,"dx":0.0017,"nx":28,"ny":28,"refTime":"2025-05-20T03:00:00:Z","depth":0,"parameterNumber":3,"parameterNumberName":"V-component_of_WINDS"},"data":[0,0,0,0,0,0,0,0,0,0,0,0,0,0,0,0,0,0,0,0,0,0,0,0,0,0,0,0,0,0,0,0,0,0,0,0,0,0,0,0,0,0,0,0,0,0,0,0,0,0,0,0,0,0,0,0,0,0,6.7053,6.7053,0,6.709,6.709,6.7091,6.7066,6.7065,6.7064,6.7063,6.7096,6.7097,6.7099,0,0,0,0,0,0,0,0,0,0,0,0,0,6.6955,6.6957,6.7053,6.7053,6.7054,6.709,6.709,6.7091,6.7066,6.7065,6.7064,6.7062,6.7095,6.7097,6.71,0,0,0,0,0,0,0,0,0,0,0,0,0,6.6995,6.6958,6.7052,6.7046,6.7046,6.709,6.709,6.7091,6.7067,6.7065,6.7063,6.7062,6.7094,6.7097,6.71,6.7151,0,0,6.7109,6.711,0,0,0,0,0,0,0,0,6.6993,6.6999,6.7046,6.7046,6.7046,6.7072,6.7068,6.7111,6.7067,6.7059,6.7063,6.7061,6.7089,6.7092,6.7102,6.7152,6.7154,6.7109,6.7111,6.7112,6.7113,0,0,0,0,0,0,0,6.699,6.6997,6.7067,6.7047,6.7047,6.7039,6.7043,6.7076,6.7082,6.7059,6.7057,6.7063,6.7088,6.71,6.7103,6.7154,6.7109,6.7111,6.7113,6.7114,6.7249,6.7251,0,0,0,0,0,0,6.6989,6.6995,6.7066,6.7068,6.7015,6.7043,6.7047,6.7065,6.7082,6.7083,6.7064,6.7061,6.7096,6.71,6.7104,6.7166,6.7112,6.7114,6.7116,6.7247,6.7249,6.7251,0,0,0,0,0,0,6.6987,6.6995,6.7064,6.7031,6.704,6.7046,6.7067,6.7067,6.7078,6.7086,6.7086,6.7075,6.7094,6.71,6.714,6.7166,6.7116,6.7118,6.7245,6.7248,6.725,6.7289,0,0,0,0,0,0,6.6984,6.6995,6.7015,6.7032,6.7041,6.7101,6.7068,6.7069,6.7084,6.7081,6.7096,6.7097,6.7094,6.7136,6.7143,6.7169,6.7121,6.7242,6.7246,6.7249,6.7285,6.7292,6.7299,0,0,0,0,0,6.6981,6.7023,6.7017,6.7025,6.7068,6.7103,6.7108,6.7105,6.7086,6.7106,6.7111,6.7096,6.7162,6.714,6.7148,6.7176,6.7241,6.7245,6.7249,6.7282,6.7291,6.7299,0,0,0,0,0,0,6.7007,6.7025,6.7018,6.7067,6.7084,6.7099,6.7124,6.7115,6.7135,6.7131,6.7125,6.7129,6.7171,6.7177,6.7152,6.7226,6.7198,6.7204,6.7221,6.7229,6.7236,6.7234,6.7123,0,0,0,0,0,6.7019,6.7048,6.7061,6.7104,6.7113,6.7117,6.7132,6.7129,6.7145,6.7151,6.7159,6.7174,6.7198,6.7214,6.7237,6.7286,6.7289,6.7309,6.7316,6.7321,6.7326,6.7353,6.7362,6.7265,6.7265,6.7265,0,0,6.7043,6.7056,6.7075,6.7109,6.7122,6.7151,6.7123,6.7154,6.7175,6.7155,6.7195,6.7201,6.7217,6.7262,6.7282,6.7269,6.7354,6.7327,6.7331,6.7333,6.7359,6.7368,6.7376,6.7268,6.7267,6.7267,0,0,6.7101,6.7115,6.7152,6.7166,6.7187,6.7189,6.7198,6.7215,6.7219,6.7259,6.7245,6.7269,6.7311,6.7323,6.7335,6.74,6.7387,6.7408,6.7443,6.7469,6.7477,6.7484,6.7507,6.7516,6.7413,6.7413,6.7413,0,6.7128,6.7173,6.7172,6.7205,6.7221,6.7207,6.7244,6.7257,6.7282,6.7293,6.7277,6.7331,6.734,6.7389,6.7405,6.7415,6.7424,6.7406,6.7477,6.7483,6.749,6.7512,6.7521,6.7415,6.7415,6.7415,6.7414,0,6.7205,6.7236,6.7264,6.7292,6.7311,6.7345,6.7348,6.7367,6.7362,6.7367,6.7407,6.7419,6.7444,6.7455,6.7449,6.7503,6.7494,6.7478,6.7449,6.7501,6.7522,6.7531,6.7418,6.7418,6.7417,6.7416,0,0,6.728,6.7309,6.7319,6.7332,6.7355,6.7378,6.7412,6.7439,6.7455,6.7473,6.7501,6.7538,6.7524,6.7537,6.7533,6.7557,6.7608,6.7538,6.7538,6.755,6.7668,6.768,6.769,6.76,6.7602,6.7603,6.7667,0,6.734,6.7403,6.7403,6.746,6.7489,6.7476,6.7506,6.7522,6.7527,6.7551,6.7556,6.7582,6.7561,6.757,6.7592,6.7597,6.7632,6.7593,6.7625,6.7626,6.7622,6.7701,6.7713,6.7773,6.7675,6.7676,6.7677,0,6.7419,6.7443,6.7503,6.7523,6.7535,6.7562,6.7587,6.7611,6.7629,6.7631,6.7647,6.764,6.7673,6.7645,6.769,6.7664,6.7677,6.7682,6.7684,6.7687,6.7655,6.7706,6.7791,6.78,6.769,6.7689,6.7688,0,6.7468,6.7515,6.7558,6.7569,6.7593,6.7612,6.7623,6.7639,6.7656,6.7677,6.7688,6.7712,6.7725,6.7744,6.7743,6.7722,6.7789,6.776,6.7791,6.7791,6.7805,6.7804,6.7895,6.7814,6.7814,6.7814,6.7814,0,6.7535,6.7572,6.7581,6.7607,6.7648,6.7648,6.7688,6.7696,6.7712,6.7738,6.7728,6.7753,6.775,6.7775,6.7774,6.7812,6.7818,6.782,6.7819,6.7821,6.7821,6.7829,6.7825,6.7816,6.7816,6.7815,6.7815,0,6.7597,6.7604,6.7649,6.7669,6.7675,6.7705,6.7721,6.7745,6.775,6.7784,6.7791,6.7798,6.7827,6.7828,6.786,6.786,6.7906,6.7901,6.7901,6.79,6.7931,6.7928,6.803,6.8043,6.7954,6.7954,6.7955,0,6.7639,6.7668,6.7692,6.7711,6.7723,6.7752,6.777,6.7771,6.7789,6.7813,6.7834,6.7862,6.7885,6.7931,6.7937,6.7962,6.7957,6.7991,6.796,6.7962,6.7958,6.7956,6.7959,6.7997,6.7998,6.7999,6.7999,0,6.7714,6.7717,6.7744,6.7773,6.7795,6.7817,6.7838,6.7853,6.7856,6.7877,6.7908,6.7925,6.796,6.7987,6.8012,6.802,6.801,6.8009,6.8018,6.8019,6.8019,6.802,6.7917,6.8007,6.8006,6.8005,6.8005,6.8005,6.7767,6.7793,6.7815,6.7846,6.7862,6.7882,6.7907,6.7916,6.7942,6.7972,6.797,6.8004,6.8021,6.8053,6.8064,6.8089,6.8077,6.8089,6.8092,6.8095,6.8099,6.8015,6.8093,6.8093,6.8093,6.8093,6.8093,0,6.7842,6.7856,6.7885,6.7916,6.794,6.7931,6.7954,6.7974,6.8005,6.8023,6.8046,6.8081,6.8109,6.8118,6.8145,6.8163,6.8159,6.817,6.8168,6.8171,6.8108,6.8098,6.8173,6.8173,6.8173,6.8173,6.8173,6.8173,6.7884,6.7927,6.7933,6.7984,6.7997,6.8032,6.8046,6.8064,6.8079,6.812,6.8143,6.815,6.8165,6.8193,6.8217,6.8219,6.8229,6.8242,6.8242,6.8183,6.8175,6.8167,6.8158,6.8244,6.8244,6.8303,6.8303,6.8303]}]]